This demonstration page uses our WeatherBlox Daily Observations layout. Learn more.

Left ArrowRight Arrow

39.08367, -84.50855

Hourly Observations for August 13, 2017

Temp ( °F °C ) Dew Point ( °F °C ) Humidity (%) Winds ( mph kmh ) Pressure ( in mb ) Visibility ( mi km ) Precip ( " mm )
12:53 am 00:53 Clear 60 15.6 60 15.6 100 100 N N/A 30.02 1017 10 16.0934 N/A
1:53 am 01:53 Clear 61 16.1 60 15.6 97 97 N N/A 30.03 1017 10 16.0934 N/A
2:53 am 02:53 Clear 60 15.6 60 15.6 100 100 N N/A 30.03 1017 9 14.48406 N/A
3:53 am 03:53 Clear 59 15 59 15 100 100 N N/A 30.03 1017 10 16.0934 N/A
4:53 am 04:53 Clear 58 14.4 58 14.4 100 100 N N/A 30.03 1017 9 14.48406 N/A
5:26 am 05:26 Clear with Mist and Fog 57 13.9 57 13.9 100 100 N N/A 30.06 1018 2.5 4.02335 N/A
5:34 am 05:34 Clear 57 13.9 57 13.9 100 100 N N/A 30.06 1018 9 14.48406 N/A
5:53 am 05:53 Clear 57 13.9 57 13.9 100 100 N N/A 30.04 1017 10 16.0934 N/A
6:09 am 06:09 Clear with Mist and Fog 58 14.4 58 14.4 100 100 N N/A 30.06 1018 1.75 2.816345 N/A
6:17 am 06:17 Clear with Mist and Fog 58 14.4 58 14.4 100 100 N N/A 30.06 1018 3 4.82802 N/A
6:29 am 06:29 Clear with Mist and Fog 57 13.9 57 13.9 100 100 NE 3 6 30.06 1018 2 3.21868 N/A
6:39 am 06:39 Clear with Mist and Fog 56 13.3 56 13.3 100 100 ENE 3 6 30.06 1018 3 4.82802 N/A
6:53 am 06:53 Sunny with Fog 57 13.9 57 13.9 100 100 N N/A 30.06 1018 10 16.0934 N/A
7:53 am 07:53 Sunny 60 15.6 60 15.6 100 100 N N/A 30.05 1018 9 14.48406 N/A
8:53 am 08:53 Sunny 66 18.9 62 16.7 87 87 NE 5 7 30.06 1018 10 16.0934 N/A
9:53 am 09:53 Sunny 71 21.7 63 17.2 76 76 NNE 6 9 30.06 1018 10 16.0934 N/A
10:53 am 10:53 Sunny 76 24.4 64 17.8 67 67 NE 6 9 30.06 1018 10 16.0934 N/A
11:53 am 11:53 Partly Cloudy 79 26.1 61 16.1 54 54 NE 7 11 30.06 1018 10 16.0934 N/A
12:53 pm 12:53 Mostly Cloudy 81 27.2 61 16.1 51 51 N 6 9 30.05 1018 10 16.0934 N/A
1:53 pm 13:53 Mostly Cloudy 79 26.1 57 13.9 47 47 NNE 3 6 30.03 1017 10 16.0934 N/A
2:53 pm 14:53 Partly Cloudy 83 28.3 58 14.4 43 43 N N/A 30.03 1017 10 16.0934 N/A
3:53 pm 15:53 Mostly Sunny 84 28.9 57 13.9 40 40 N N/A 29.99 1016 10 16.0934 N/A
4:53 pm 16:53 Partly Cloudy 84 28.9 58 14.4 41 41 NE 6 9 29.98 1015 10 16.0934 N/A
5:53 pm 17:53 Partly Cloudy 83 28.3 59 15 44 44 ENE 7 11 29.98 1015 10 16.0934 N/A
6:53 pm 18:53 Partly Cloudy 80 26.7 59 15 49 49 NE 9 15 29.98 1015 10 16.0934 N/A
7:53 pm 19:53 Mostly Sunny 77 25 59 15 54 54 ESE 3 6 29.98 1015 10 16.0934 N/A
8:53 pm 20:53 Mostly Clear 70 21.1 63 17.2 79 79 N N/A 29.98 1015 10 16.0934 N/A
9:53 pm 21:53 Clear 66 18.9 63 17.2 90 90 N N/A 29.99 1016 10 16.0934 N/A
10:53 pm 22:53 Clear 65 18.3 62 16.7 90 90 N N/A 29.99 1016 10 16.0934 N/A
11:53 pm 23:53 Clear 64 17.8 62 16.7 93 93 N N/A 29.98 1015 10 16.0934 N/A

Powered by AerisWeather